�N����,����,�~����,�C��,���x,�C��,����,���ϕ���,�ő�u�ԕ���,�ő厞����,���˗�,�I�_���x,�n�����x,�ő啗���N��,DTYPE
"19/04/13","00:10",0.0,4.8,89.1,1013.3,302.0,2.1,3.1,316.0,0.00,3.2,10.5,"00:07:06",1
"19/04/13","00:20",0.0,4.8,88.2,1013.5,317.9,1.7,2.7,323.6,0.00,3.1,10.3,"00:19:52",1
"19/04/13","00:30",0.0,4.7,88.9,1013.5,297.8,2.1,2.6,315.4,0.00,3.1,10.5,"00:20:24",1
"19/04/13","00:40",0.0,4.7,88.6,1013.8,292.5,2.2,3.1,303.2,0.00,3.0,10.2,"00:38:00",1
"19/04/13","00:50",0.0,4.7,89.4,1013.5,300.4,1.5,2.4,315.0,0.00,3.1,10.2,"00:41:44",1
"19/04/13","01:00",0.0,4.7,89.4,1013.3,292.6,1.6,1.9,277.3,0.00,3.1,10.2,"00:57:38",1
"19/04/13","01:10",0.0,4.7,89.1,1013.8,285.1,1.8,2.9,298.1,0.00,3.1,10.1,"01:08:56",1
"19/04/13","01:20",0.0,4.8,89.0,1014.0,292.0,2.1,2.6,297.1,0.00,3.2,10.1,"01:14:40",1
"19/04/13","01:30",0.0,4.9,88.6,1014.0,296.2,2.2,2.9,306.1,0.00,3.2,10.1,"01:24:40",1
"19/04/13","01:40",0.0,5.0,89.3,1014.0,298.8,2.5,4.0,319.2,0.00,3.4,10.1,"01:38:40",1
"19/04/13","01:50",0.0,5.3,89.1,1014.2,323.7,3.0,4.1,328.5,0.00,3.7,10.0,"01:42:16",1
"19/04/13","02:00",0.0,5.5,88.5,1014.5,327.1,2.6,4.8,335.6,0.00,3.8,10.0,"01:57:36",1
"19/04/13","02:10",0.0,5.6,87.8,1014.2,328.4,2.6,4.5,339.9,0.00,3.8,9.7,"02:00:40",1
"19/04/13","02:20",0.0,5.6,87.8,1014.5,325.1,2.8,4.4,346.5,0.00,3.8,9.9,"02:18:00",1
"19/04/13","02:30",0.0,5.7,87.5,1014.2,332.6,2.5,4.4,338.3,0.00,3.8,10.0,"02:28:56",1
"19/04/13","02:40",0.0,5.6,86.9,1014.7,309.8,3.0,4.7,336.9,0.00,3.6,10.0,"02:30:24",1
"19/04/13","02:50",0.0,5.4,87.1,1014.5,303.3,2.0,2.8,327.7,0.00,3.5,9.8,"02:47:20",1
"19/04/13","03:00",0.0,5.3,87.4,1014.5,330.9,1.8,2.6,316.2,0.00,3.4,9.8,"02:59:28",1
"19/04/13","03:10",0.0,5.0,87.3,1014.7,286.4,2.1,3.3,326.0,0.00,3.1,9.8,"03:00:32",1
"19/04/13","03:20",0.0,4.6,88.1,1014.7,286.1,1.6,2.4,317.8,0.00,2.8,9.8,"03:11:28",1
"19/04/13","03:30",0.0,4.4,88.3,1014.9,301.3,1.5,2.2,321.1,0.00,2.7,9.7,"03:27:36",1
"19/04/13","03:40",0.0,4.0,89.3,1014.9,296.0,1.3,2.6,311.3,0.00,2.4,9.8,"03:38:56",1
"19/04/13","03:50",0.0,4.7,89.9,1014.5,324.2,3.2,5.1,328.7,0.00,3.2,9.8,"03:47:12",1
"19/04/13","04:00",0.0,4.7,89.5,1014.2,304.7,2.8,4.4,314.6,0.00,3.2,9.7,"03:51:20",1
"19/04/13","04:10",0.0,4.6,90.3,1014.2,284.1,1.8,3.4,290.0,0.00,3.2,9.6,"04:04:32",1
"19/04/13","04:20",0.0,4.7,90.3,1014.5,302.9,2.3,4.3,322.7,0.00,3.3,9.7,"04:19:12",1
"19/04/13","04:30",0.0,4.6,89.5,1014.5,329.6,3.2,4.4,332.1,0.00,3.1,9.5,"04:24:24",1
"19/04/13","04:40",0.0,4.5,90.5,1014.5,341.4,1.5,4.0,326.1,0.00,3.1,9.7,"04:31:12",1
"19/04/13","04:50",0.0,5.1,90.8,1014.5,319.5,3.0,5.6,318.6,0.00,3.8,9.7,"04:46:00",1
"19/04/13","05:00",0.0,5.3,90.1,1014.7,319.0,2.6,4.5,338.1,0.00,3.9,9.6,"04:52:40",1
"19/04/13","05:10",0.0,5.1,90.0,1014.7,307.1,2.8,4.7,329.7,0.00,3.6,9.4,"05:00:24",1
"19/04/13","05:20",0.0,5.0,89.9,1014.7,303.2,2.0,3.3,311.0,0.00,3.5,9.4,"05:12:32",1
"19/04/13","05:30",0.0,4.7,90.0,1014.7,313.8,2.5,4.0,317.0,0.00,3.2,9.7,"05:29:52",1
"19/04/13","05:40",0.0,4.7,89.8,1014.9,314.1,3.5,5.4,328.0,0.00,3.2,9.4,"05:32:56",1
"19/04/13","05:50",0.0,4.6,90.3,1015.2,289.8,2.5,3.5,260.3,0.00,3.2,9.2,"05:47:52",1
"19/04/13","06:00",0.0,4.7,90.2,1015.4,290.0,2.6,3.5,254.0,0.00,3.3,9.4,"05:55:44",1
"19/04/13","06:10",0.0,4.7,90.4,1015.9,293.5,2.1,3.4,304.3,0.00,3.3,9.4,"06:00:40",1
"19/04/13","06:20",0.0,4.7,90.5,1015.9,308.0,2.2,3.3,302.8,0.00,3.3,9.5,"06:18:24",1
"19/04/13","06:30",0.0,5.1,90.5,1016.4,307.2,2.0,3.3,265.4,0.00,3.7,9.1,"06:21:36",1
"19/04/13","06:40",0.0,5.4,89.8,1016.4,322.7,1.7,4.0,328.4,0.00,3.9,9.5,"06:34:56",1
"19/04/13","06:50",0.0,5.5,90.0,1016.1,35.3,1.1,3.2,336.5,0.01,4.0,9.6,"06:49:36",1
"19/04/13","07:00",0.0,5.6,89.9,1017.1,347.2,1.7,3.2,341.1,0.03,4.1,9.3,"06:51:20",1
"19/04/13","07:10",0.0,6.5,89.3,1016.6,325.8,1.5,2.7,319.4,0.04,4.9,9.3,"07:01:28",1
"19/04/13","07:20",0.0,6.9,87.4,1017.1,264.3,0.7,1.4,309.5,0.06,5.0,9.3,"07:11:12",1
"19/04/13","07:30",0.0,7.8,86.5,1017.5,318.7,1.0,2.0,328.3,0.08,5.7,9.4,"07:24:32",1
"19/04/13","07:40",0.0,7.8,82.3,1018.0,331.1,1.1,2.0,312.2,0.11,5.0,9.4,"07:38:16",1
"19/04/13","07:50",0.0,8.3,81.5,1018.0,290.9,1.3,2.5,333.5,0.13,5.4,9.5,"07:42:48",1
"19/04/13","08:00",0.0,8.6,80.5,1018.0,264.0,1.0,1.8,241.4,0.16,5.5,9.8,"07:55:12",1
"19/04/13","08:10",0.0,9.2,78.8,1018.5,254.2,0.7,1.4,328.8,0.19,5.8,9.7,"08:00:08",1
"19/04/13","08:20",0.0,9.4,78.2,1018.2,184.5,0.7,1.7,125.1,0.22,5.8,9.9,"08:18:16",1
"19/04/13","08:30",0.0,9.3,75.6,1018.2,132.4,1.0,2.1,190.7,0.25,5.3,9.9,"08:20:16",1
"19/04/13","08:40",0.0,9.9,74.0,1018.0,165.0,0.8,2.2,128.1,0.28,5.5,9.9,"08:31:12",1
"19/04/13","08:50",0.0,10.6,74.1,1018.2,200.9,0.7,2.1,139.3,0.30,6.2,9.9,"08:49:36",1
"19/04/13","09:00",0.0,10.5,72.6,1018.2,214.2,1.2,2.8,122.6,0.33,5.8,10.2,"08:50:56",1
"19/04/13","09:10",0.0,11.2,72.6,1018.2,139.9,1.1,3.1,118.5,0.36,6.5,10.3,"09:05:36",1
"19/04/13","09:20",0.0,11.5,70.3,1017.8,108.7,1.1,3.1,63.9,0.38,6.3,10.3,"09:19:44",1
"19/04/13","09:30",0.0,11.8,67.0,1017.8,116.9,1.6,3.1,111.9,0.41,5.9,10.8,"09:23:36",1
"19/04/13","09:40",0.0,12.3,67.9,1018.0,145.8,1.3,2.8,131.0,0.43,6.6,10.6,"09:32:00",1
"19/04/13","09:50",0.0,12.8,64.4,1018.2,131.9,1.2,2.8,110.2,0.45,6.3,11.0,"09:42:00",1
"19/04/13","10:00",0.0,12.7,63.6,1018.0,106.7,1.5,2.9,107.0,0.47,6.0,10.8,"09:54:40",1
"19/04/13","10:10",0.0,12.7,61.8,1017.8,114.7,1.6,2.9,120.0,0.49,5.6,11.2,"10:04:00",1
"19/04/13","10:20",0.0,13.2,59.4,1018.0,81.2,1.3,3.1,109.6,0.51,5.5,11.2,"10:18:48",1
"19/04/13","10:30",0.0,12.6,57.3,1017.8,114.1,1.5,3.5,58.9,0.53,4.4,11.6,"10:27:52",1
"19/04/13","10:40",0.0,14.0,59.3,1018.0,250.2,1.2,2.5,127.1,0.54,6.2,11.6,"10:36:24",1
"19/04/13","10:50",0.0,13.8,56.6,1017.5,155.1,1.5,3.4,118.3,0.55,5.4,11.8,"10:40:24",1
"19/04/13","11:00",0.0,14.2,53.3,1017.3,211.9,1.8,3.7,216.8,0.57,4.9,11.9,"10:57:20",1
"19/04/13","11:10",0.0,14.1,48.8,1017.3,213.9,1.6,4.0,231.5,0.58,3.5,12.3,"11:09:44",1
"19/04/13","11:20",0.0,14.1,43.6,1017.3,192.6,2.5,4.1,186.3,0.58,2.0,12.2,"11:10:16",1
"19/04/13","11:30",0.0,14.4,42.6,1016.8,177.5,2.0,3.9,190.0,0.60,1.9,12.5,"11:24:16",1
"19/04/13","11:40",0.0,15.1,44.1,1016.8,252.5,1.5,3.1,214.0,0.61,3.0,12.7,"11:33:04",1
"19/04/13","11:50",0.0,14.9,39.4,1016.8,190.4,1.6,3.5,188.0,0.61,1.3,13.0,"11:41:44",1
"19/04/13","12:00",0.0,15.4,40.7,1017.1,199.2,2.0,4.5,175.2,0.62,2.2,13.1,"11:51:28",1
"19/04/13","12:10",0.0,15.4,38.6,1016.6,207.4,1.8,4.4,235.4,0.62,1.4,13.2,"12:01:20",1
"19/04/13","12:20",0.0,15.1,38.9,1016.6,220.7,1.7,3.7,292.9,0.62,1.3,13.4,"12:15:52",1
"19/04/13","12:30",0.0,15.6,41.4,1016.4,183.3,2.2,4.3,130.1,0.62,2.6,13.7,"12:28:00",1
"19/04/13","12:40",0.0,15.3,38.1,1016.6,177.4,1.6,3.6,223.1,0.63,1.2,14.0,"12:33:52",1
"19/04/13","12:50",0.0,15.5,34.5,1016.1,194.8,1.6,3.7,145.7,0.62,0.0,14.1,"12:40:24",1
"19/04/13","13:00",0.0,15.5,32.4,1016.1,117.7,1.1,2.7,121.6,0.62,-0.9,14.3,"12:55:20",1
"19/04/13","13:10",0.0,15.9,37.8,1015.9,257.2,1.5,3.3,197.9,0.61,1.6,14.4,"13:07:52",1
"19/04/13","13:20",0.0,16.4,38.6,1015.4,340.7,1.3,2.8,128.8,0.60,2.3,14.7,"13:13:36",1
"19/04/13","13:30",0.0,16.5,37.1,1015.2,206.3,1.6,3.5,222.9,0.60,1.9,14.9,"13:20:02",1
"19/04/13","13:40",0.0,16.6,38.3,1015.2,176.9,2.0,4.3,116.2,0.59,2.4,14.7,"13:37:28",1
"19/04/13","13:50",0.0,17.0,38.9,1014.9,188.5,1.3,3.6,118.2,0.58,3.0,14.9,"13:41:44",1
"19/04/13","14:00",0.0,16.9,35.1,1014.9,87.7,1.6,3.7,125.5,0.57,1.4,15.3,"13:52:48",1
"19/04/13","14:10",0.0,17.2,36.8,1014.5,350.1,2.0,4.7,344.9,0.56,2.4,15.2,"14:04:56",1
"19/04/13","14:20",0.0,17.1,34.5,1014.7,147.0,1.7,4.8,159.4,0.53,1.4,15.6,"14:14:08",1
"19/04/13","14:30",0.0,17.2,33.7,1014.2,150.0,1.8,4.5,123.3,0.53,1.1,15.4,"14:22:16",1
"19/04/13","14:40",0.0,18.1,36.2,1014.0,162.5,1.8,5.1,169.0,0.52,2.9,15.8,"14:31:44",1
"19/04/13","14:50",0.0,17.9,36.1,1014.0,185.1,2.2,5.5,220.2,0.50,2.7,15.7,"14:44:24",1
"19/04/13","15:00",0.0,17.9,36.2,1013.5,166.6,2.2,4.9,149.4,0.48,2.7,15.7,"14:55:04",1
"19/04/13","15:10",0.0,18.2,34.4,1013.8,263.4,2.0,4.4,232.0,0.46,2.3,15.6,"15:04:48",1
"19/04/13","15:20",0.0,18.1,36.3,1013.8,230.7,1.0,1.9,300.1,0.42,3.0,16.0,"15:10:16",1
"19/04/13","15:30",0.0,18.2,30.8,1013.8,176.3,1.7,4.3,153.9,0.40,0.8,15.7,"15:28:00",1
"19/04/13","15:40",0.0,18.3,29.1,1013.5,265.8,2.1,4.8,279.1,0.34,0.1,16.1,"15:35:12",1
"19/04/13","15:50",0.0,18.2,30.8,1013.5,302.7,2.1,4.3,322.6,0.28,0.8,16.0,"15:44:00",1
"19/04/13","16:00",0.0,18.3,30.3,1013.5,244.1,2.2,5.0,287.1,0.25,0.6,16.0,"15:52:16",1
"19/04/13","16:10",0.0,17.7,33.1,1013.8,267.2,2.1,4.1,263.5,0.22,1.3,15.8,"16:04:48",1
"19/04/13","16:20",0.0,17.5,35.6,1014.2,215.6,2.3,4.7,196.5,0.16,2.2,15.8,"16:15:04",1
"19/04/13","16:30",0.0,17.3,33.3,1014.2,238.1,2.0,4.7,230.0,0.12,1.1,15.6,"16:20:02",1
"19/04/13","16:40",0.0,17.3,30.9,1014.0,247.4,2.7,4.5,213.8,0.12,0.0,15.6,"16:30:48",1
"19/04/13","16:50",0.0,17.4,30.0,1014.0,261.0,1.6,4.7,238.0,0.12,-0.3,15.5,"16:43:52",1
"19/04/13","17:00",0.0,17.2,30.4,1014.2,239.9,1.7,5.8,224.1,0.10,-0.3,15.4,"16:56:40",1
"19/04/13","17:10",0.0,17.2,31.9,1014.5,249.5,1.8,4.0,231.8,0.08,0.4,15.5,"17:07:04",1
"19/04/13","17:20",0.0,16.8,29.3,1014.7,263.8,2.2,4.5,226.5,0.08,-1.1,15.5,"17:16:32",1
"19/04/13","17:30",0.0,16.6,25.8,1014.9,254.7,2.1,4.4,247.2,0.06,-3.0,15.2,"17:23:48",1
"19/04/13","17:40",0.0,16.3,25.6,1014.5,269.8,2.1,4.1,231.9,0.04,-3.4,15.2,"17:38:24",1
"19/04/13","17:50",0.0,16.1,25.2,1014.9,280.5,2.1,3.7,265.0,0.02,-3.8,15.0,"17:48:14",1
"19/04/13","18:00",0.0,15.8,27.0,1015.2,275.6,2.3,6.2,229.8,0.02,-3.1,14.9,"17:57:08",1
"19/04/13","18:10",0.0,15.6,27.5,1014.9,262.7,2.3,4.9,269.9,0.01,-3.0,14.9,"18:05:44",1
"19/04/13","18:20",0.0,15.4,27.5,1015.6,267.7,2.3,4.0,239.9,0.01,-3.2,14.9,"18:15:36",1
"19/04/13","18:30",0.0,15.2,28.7,1015.2,265.7,2.1,4.7,237.9,0.00,-2.8,14.7,"18:24:24",1
"19/04/13","18:40",0.0,15.0,28.0,1015.6,271.4,2.2,5.1,301.6,0.00,-3.3,14.6,"18:34:56",1
"19/04/13","18:50",0.0,14.7,28.7,1015.6,277.6,1.7,3.3,335.9,0.00,-3.2,14.6,"18:45:28",1
"19/04/13","19:00",0.0,14.6,28.1,1015.6,264.8,2.0,4.1,284.3,0.00,-3.6,14.2,"18:53:36",1
"19/04/13","19:10",0.0,14.5,28.5,1016.1,268.0,2.3,4.4,235.2,0.00,-3.5,14.4,"19:09:36",1
"19/04/13","19:20",0.0,14.3,29.3,1015.6,272.7,2.2,5.0,322.8,0.00,-3.3,14.1,"19:12:32",1
"19/04/13","19:30",0.0,14.2,30.0,1015.6,263.0,3.0,5.4,237.2,0.00,-3.1,14.2,"19:25:52",1
"19/04/13","19:40",0.0,14.1,31.3,1015.9,260.4,2.7,6.3,274.5,0.00,-2.6,13.8,"19:35:52",1
"19/04/13","19:50",0.0,13.9,33.8,1015.6,264.4,2.6,4.9,307.5,0.00,-1.7,14.0,"19:42:08",1
"19/04/13","20:00",0.0,13.7,37.0,1016.1,278.7,1.8,3.7,304.5,0.00,-0.7,13.7,"19:54:08",1
"19/04/13","20:10",0.0,13.6,41.4,1016.1,280.5,2.3,5.4,327.6,0.00,0.8,13.8,"20:02:24",1
"19/04/13","20:20",0.0,13.6,44.6,1016.1,281.4,2.1,4.1,320.3,0.00,1.8,13.7,"20:16:16",1
"19/04/13","20:30",0.0,13.5,46.8,1015.9,273.2,1.8,5.9,291.5,0.00,2.4,13.5,"20:24:00",1
"19/04/13","20:40",0.0,13.5,49.3,1016.4,259.9,1.3,3.1,254.9,0.00,3.1,13.2,"20:36:56",1
"19/04/13","20:50",0.0,13.3,50.2,1016.6,286.0,1.2,2.9,323.4,0.00,3.2,13.3,"20:44:24",1
"19/04/13","21:00",0.0,13.3,52.2,1016.8,286.6,1.7,2.6,343.2,0.00,3.8,13.5,"20:59:04",1
"19/04/13","21:10",0.0,13.4,52.5,1016.8,280.0,1.2,2.4,292.0,0.00,3.9,13.3,"21:04:32",1
"19/04/13","21:20",0.0,13.5,52.7,1017.1,327.5,1.5,2.7,335.7,0.00,4.1,13.1,"21:11:52",1
"19/04/13","21:30",0.0,13.4,53.9,1017.1,339.5,1.2,2.5,337.5,0.00,4.3,13.2,"21:24:48",1
"19/04/13","21:40",0.0,13.3,54.8,1017.3,341.5,1.5,1.9,350.3,0.00,4.4,13.0,"21:36:16",1
"19/04/13","21:50",0.0,13.1,56.4,1016.8,353.3,0.8,1.8,345.1,0.00,4.7,13.1,"21:47:52",1
"19/04/13","22:00",0.0,12.7,59.1,1017.1,340.0,1.6,2.7,339.8,0.00,5.0,13.0,"21:51:12",1
"19/04/13","22:10",0.0,12.4,60.8,1017.3,327.4,1.3,1.7,328.6,0.00,5.1,13.0,"22:03:04",1
"19/04/13","22:20",0.0,12.1,62.8,1017.5,309.0,1.7,2.2,313.3,0.00,5.3,12.7,"22:16:06",1
"19/04/13","22:30",0.0,11.8,63.6,1017.1,299.7,1.2,2.2,321.9,0.00,5.2,12.9,"22:20:28",1
"19/04/13","22:40",0.0,11.6,64.2,1016.6,286.3,1.2,1.7,303.7,0.00,5.1,12.7,"22:39:10",1
"19/04/13","22:50",0.0,11.3,66.2,1016.6,301.5,1.5,2.0,324.8,0.00,5.3,12.8,"22:49:38",1
"19/04/13","23:00",0.0,11.4,67.1,1016.8,317.9,1.7,2.4,313.4,0.00,5.6,12.7,"22:56:36",1
"19/04/13","23:10",0.0,11.4,68.0,1016.8,323.1,0.7,1.6,325.7,0.00,5.8,12.7,"23:01:28",1
"19/04/13","23:20",0.0,11.2,69.4,1016.8,321.3,1.8,2.1,323.3,0.00,5.9,12.4,"23:11:20",1
"19/04/13","23:30",0.0,11.1,70.6,1016.6,318.9,1.5,2.0,325.6,0.00,6.0,12.8,"23:25:00",1
"19/04/13","23:40",0.0,11.0,70.9,1016.8,313.7,1.5,1.9,323.8,0.00,6.0,12.7,"23:35:12",1
"19/04/13","23:50",0.0,10.9,71.4,1016.6,306.4,1.7,2.5,333.4,0.00,6.0,12.6,"23:49:38",1
"19/04/13","24:00",0.0,10.8,71.9,1016.8,307.9,1.6,2.7,329.5,0.00,6.0,12.4,"23:50:32",1
